TimeEST,TemperatureF,Dew PointF,Humidity,Sea Level PressureIn,VisibilityMPH,Wind Direction,Wind SpeedMPH,Gust SpeedMPH,PrecipitationIn,Events,Conditions,WindDirDegrees,DateUTC
12:15 AM,26.6,24.8,93,30.43,10.0,SSE,8.1,-,N/A,,Overcast,150,2013-11-30 05:15:00
12:35 AM,26.6,24.8,93,30.42,10.0,SSE,9.2,-,N/A,,Overcast,160,2013-11-30 05:35:00
12:55 AM,26.6,23.0,86,30.41,10.0,SSE,6.9,-,N/A,,Overcast,160,2013-11-30 05:55:00
1:15 AM,26.6,23.0,86,30.39,10.0,SSE,10.4,-,N/A,,Overcast,160,2013-11-30 06:15:00
1:35 AM,26.6,23.0,86,30.39,10.0,SSE,9.2,-,N/A,,Overcast,160,2013-11-30 06:35:00
1:55 AM,26.6,23.0,86,30.38,10.0,SSE,13.8,-,N/A,,Overcast,150,2013-11-30 06:55:00
2:15 AM,26.6,21.2,80,30.38,10.0,SSE,13.8,-,N/A,,Overcast,160,2013-11-30 07:15:00
2:35 AM,26.6,21.2,80,30.37,10.0,SSE,11.5,-,N/A,,Overcast,150,2013-11-30 07:35:00
2:55 AM,26.6,21.2,80,30.36,10.0,SSE,13.8,19.6,N/A,,Overcast,160,2013-11-30 07:55:00
3:15 AM,26.6,21.2,80,30.35,10.0,SSE,12.7,-,N/A,,Overcast,160,2013-11-30 08:15:00
3:35 AM,26.6,21.2,80,30.34,10.0,SSE,12.7,-,N/A,,Overcast,160,2013-11-30 08:35:00
3:55 AM,26.6,21.2,80,30.32,10.0,SSE,11.5,19.6,N/A,,Overcast,160,2013-11-30 08:55:00
4:15 AM,26.6,21.2,80,30.31,10.0,SSE,16.1,24.2,N/A,,Overcast,160,2013-11-30 09:15:00
4:35 AM,28.4,21.2,74,30.30,10.0,SSE,15.0,20.7,N/A,,Overcast,160,2013-11-30 09:35:00
4:55 AM,28.4,23.0,80,30.28,10.0,SSE,12.7,21.9,N/A,,Overcast,160,2013-11-30 09:55:00
5:15 AM,28.4,23.0,80,30.26,10.0,SSE,12.7,19.6,N/A,,Overcast,160,2013-11-30 10:15:00
5:35 AM,28.4,23.0,80,30.25,10.0,SSE,11.5,-,N/A,,Overcast,160,2013-11-30 10:35:00
5:55 AM,28.4,23.0,80,30.23,10.0,SSE,16.1,21.9,N/A,,Overcast,160,2013-11-30 10:55:00
6:15 AM,28.4,23.0,80,30.22,10.0,South,12.7,20.7,N/A,,Overcast,170,2013-11-30 11:15:00
6:35 AM,28.4,24.8,86,30.20,10.0,SSE,18.4,-,N/A,,Overcast,160,2013-11-30 11:35:00
6:55 AM,28.4,24.8,86,30.19,10.0,South,17.3,24.2,N/A,,Overcast,170,2013-11-30 11:55:00
7:15 AM,28.4,24.8,86,30.19,10.0,South,12.7,19.6,N/A,,Overcast,170,2013-11-30 12:15:00
7:35 AM,28.4,24.8,86,30.18,10.0,SSE,13.8,20.7,N/A,,Overcast,160,2013-11-30 12:35:00
7:55 AM,28.4,24.8,86,30.17,10.0,South,13.8,18.4,N/A,,Overcast,170,2013-11-30 12:55:00
8:15 AM,28.4,24.8,86,30.16,10.0,South,12.7,-,N/A,,Overcast,170,2013-11-30 13:15:00
8:35 AM,28.4,26.6,93,30.16,10.0,South,9.2,16.1,N/A,,Overcast,170,2013-11-30 13:35:00
8:55 AM,28.4,26.6,93,30.16,10.0,South,12.7,18.4,N/A,,Overcast,170,2013-11-30 13:55:00
9:15 AM,30.2,26.6,86,30.15,10.0,South,12.7,-,N/A,,Overcast,170,2013-11-30 14:15:00
9:35 AM,30.2,26.6,86,30.13,10.0,SSE,11.5,20.7,N/A,,Overcast,160,2013-11-30 14:35:00
9:55 AM,30.2,26.6,86,30.12,10.0,South,11.5,-,N/A,,Overcast,170,2013-11-30 14:55:00
10:15 AM,30.2,26.6,86,30.12,10.0,SSE,10.4,18.4,N/A,,Overcast,160,2013-11-30 15:15:00
10:35 AM,30.2,26.6,86,30.11,10.0,South,12.7,16.1,N/A,,Overcast,170,2013-11-30 15:35:00
10:55 AM,30.2,28.4,93,30.10,10.0,South,9.2,17.3,N/A,,Overcast,170,2013-11-30 15:55:00
11:15 AM,32.0,28.4,87,30.10,7.0,South,9.2,-,N/A,,Overcast,170,2013-11-30 16:15:00
11:35 AM,32.0,28.4,87,30.08,5.0,South,10.4,-,N/A,,Overcast,170,2013-11-30 16:35:00
11:55 AM,30.2,28.4,93,30.07,5.0,South,9.2,-,N/A,,Overcast,170,2013-11-30 16:55:00
12:15 PM,32.0,30.2,93,30.07,6.0,South,6.9,-,N/A,,Overcast,170,2013-11-30 17:15:00
12:35 PM,32.0,30.2,93,30.05,3.0,South,8.1,-,N/A,,Overcast,170,2013-11-30 17:35:00
12:55 PM,33.8,30.2,87,30.04,2.0,South,6.9,-,N/A,,Overcast,170,2013-11-30 17:55:00
1:15 PM,33.8,30.2,87,30.04,1.2,South,4.6,-,N/A,,Overcast,170,2013-11-30 18:15:00
1:35 PM,33.8,30.2,87,30.03,1.0,Calm,Calm,-,0.01,,Overcast,0,2013-11-30 18:35:00
1:55 PM,33.8,32.0,93,30.03,1.0,Calm,Calm,-,0.02,,Overcast,0,2013-11-30 18:55:00
2:15 PM,33.8,32.0,93,30.02,0.8,Calm,Calm,-,0.02,,Overcast,0,2013-11-30 19:15:00
2:35 PM,33.8,30.2,87,30.01,0.8,Calm,Calm,-,0.03,,Overcast,0,2013-11-30 19:35:00
2:55 PM,33.8,30.2,87,30.01,1.0,Calm,Calm,-,0.04,,Overcast,0,2013-11-30 19:55:00
3:15 PM,33.8,30.2,87,30.01,1.0,Calm,Calm,-,0.01,,Overcast,0,2013-11-30 20:15:00
3:35 PM,33.8,30.2,87,30.01,1.0,Calm,Calm,-,0.03,,Overcast,0,2013-11-30 20:35:00
3:55 PM,33.8,30.2,87,30.01,1.0,Calm,Calm,-,0.03,,Overcast,0,2013-11-30 20:55:00
4:15 PM,33.8,30.2,87,30.01,1.5,NW,5.8,-,0.01,,Overcast,320,2013-11-30 21:15:00
4:35 PM,32.0,30.2,93,30.01,2.0,NW,3.5,-,0.01,,Overcast,310,2013-11-30 21:35:00
4:55 PM,32.0,30.2,93,30.01,2.0,Calm,Calm,-,0.01,,Overcast,0,2013-11-30 21:55:00
5:15 PM,32.0,30.2,93,30.01,2.0,Calm,Calm,-,N/A,,Overcast,0,2013-11-30 22:15:00
5:35 PM,32.0,30.2,93,30.01,3.0,Calm,Calm,-,N/A,,Overcast,0,2013-11-30 22:35:00
5:55 PM,30.2,28.4,93,30.02,2.5,Calm,Calm,-,N/A,,Overcast,0,2013-11-30 22:55:00
6:15 PM,30.2,28.4,93,30.02,2.0,Calm,Calm,-,N/A,,Overcast,0,2013-11-30 23:15:00
6:35 PM,30.2,30.2,100,30.03,2.5,Calm,Calm,-,N/A,,Overcast,0,2013-11-30 23:35:00
6:55 PM,30.2,30.2,100,30.03,3.0,WNW,3.5,-,N/A,,Overcast,290,2013-11-30 23:55:00
7:15 PM,30.2,30.2,100,30.03,4.0,NW,3.5,-,N/A,,Overcast,310,2013-12-01 00:15:00
7:35 PM,30.2,30.2,100,30.03,3.0,Calm,Calm,-,N/A,,Overcast,0,2013-12-01 00:35:00
7:55 PM,30.2,30.2,100,30.04,3.0,NW,3.5,-,N/A,,Overcast,320,2013-12-01 00:55:00
8:15 PM,30.2,30.2,100,30.03,3.0,Calm,Calm,-,N/A,,Overcast,0,2013-12-01 01:15:00
8:35 PM,30.2,30.2,100,30.03,2.5,Calm,Calm,-,N/A,,Overcast,0,2013-12-01 01:35:00
8:55 PM,30.2,30.2,100,30.03,2.5,Calm,Calm,-,N/A,,Overcast,0,2013-12-01 01:55:00
9:15 PM,30.2,30.2,100,30.03,2.0,Calm,Calm,-,N/A,,Overcast,0,2013-12-01 02:15:00
9:35 PM,30.2,30.2,100,30.03,2.0,Calm,Calm,-,N/A,,Overcast,0,2013-12-01 02:35:00
9:55 PM,30.2,30.2,100,30.03,2.0,Calm,Calm,-,N/A,,Overcast,0,2013-12-01 02:55:00
10:15 PM,30.2,30.2,100,30.03,2.0,Calm,Calm,-,N/A,,Overcast,0,2013-12-01 03:15:00
10:35 PM,30.2,30.2,100,30.03,2.0,Calm,Calm,-,N/A,,Overcast,0,2013-12-01 03:35:00
10:55 PM,30.2,30.2,100,30.03,2.0,Calm,Calm,-,N/A,,Overcast,0,2013-12-01 03:55:00
11:15 PM,30.2,30.2,100,30.03,2.5,NW,4.6,-,N/A,,Overcast,320,2013-12-01 04:15:00
11:35 PM,30.2,30.2,100,30.04,2.0,NW,4.6,-,N/A,,Overcast,320,2013-12-01 04:35:00
11:55 PM,30.2,30.2,100,30.04,2.0,NW,4.6,-,N/A,,Overcast,310,2013-12-01 04:55:00